Погода в Светловодске

Погода в Светловодске : погода сейчас, прогноз погоды и архив. Всё, что Вы хотите узнать о погоде в Светловодске!

Хотите узнать прогноз погоды в Светловодске? Тогда Вам сюда: Погода в Светловодске

Поиск расширенной информации на нашем сайте:

Другие новости

Новости СМИ2

Главная страница сайта

Новости сайта

03.07.2017

Напоминаем, что на нашем специализированном сайте Метеоцентр.Азия вы можете получить высокодетализированные автоматические прогнозы погоды по пунктам России, СНГ и мира в авиационном формате (включающие направление и скорость ветра, видимость, явления погоды, количество и форму облачности, нижнюю и верхнюю границу облачности).


Погода в Светловодске - сегодня

Время (UTC), дата Ветер
(°,м/с) 
Видим.   Явления Облачность Т
(°С)
Тd
(°С)
f(%) Тe
(°С)
Pmin
(гПа)
dP
(гПа)
Po
(мм)
O2
(г/м3)
Тmin Tmax R s Состояние
почвы
15 09.12.17 170 (Ю) 12000 м    10/10 480 м 
[St]
+4 +2 87 +4  1011.4  -0.1  751  298           
18 09.12.17 180 (Ю) 8000 м  дымка  10/10 500 м 
[Sc]
+5.6 +4.7 94 +4  1010.2  -1.1  750  295    +5.7       
21 09.12.17 140 (ЮВ) 4800 м  дымка  10/10 330 м 
[St]
+5.8 +4.9 94 +6  1009  -1.2  749  295           
00 10.12.17 170 (Ю) 5000 м  дымка  10/10 400 м 
[St]
+7.6 +6.7 94 +8  1007.3  -1.6  748  292           
03 10.12.17 180 (Ю) 6000 м  слаб. морось  10/10 450 м 
[St]
+8.4 +7.1 92 +8  1005.9  -1.4  747  291           
06 10.12.17 200 (Ю) 4000 м  дымка{морось}  10/10 360 м 
[St]
+8.4 +6.7 89 +7  1004.9  -1  746  290  +5.6    0.0     
09 10.12.17 180 (Ю) 4000 м  слаб. ливневой дождь  10/10 540 м кучево-дожд. 
[Cb cap]
+8.3 +6.3 87 +7  1004.1  -0.8  745  290           
12 10.12.17 150 (ЮВ) 4000 м  слаб. дождь{ливн. осадки}  10/10 630 м 
[Frnb]
+9.4 +7.7 89 +8  1000.7  -3.3  743  288      0.4     
15 10.12.17 160 (Ю) 5000 м  слаб. дождь  10/10 570 м 
[Frnb|Ns]
+9.2 +7.3 88 +7  996.3  -4.4  740  287           
18 10.12.17 220 (ЮЗ) 7000 м  слаб. дождь  10/0 средняя 
[Frnb|As op]
+6.3 +4 85 +4  996.2  -0.2  740  291    +10.2     
21 10.12.17 270 (З) 5000 м  слаб. снег{дождь}  10/10 330 м 
[Frnb|Ns]
+1 -0.7 88 -3  1000.3  3.9  742  298           
00 11.12.17 280 (З) 10{19}  12000 м  {снег}  10/10 540 м 
[Sc]
+0.9 -1.5 84 -4  1005.1  4.7  746  300         
03 11.12.17 270 (З) 16000 м    9/0 верхняя 
[Ci fib]
+0.2 -3.7 75 -3  1010.8  5.6  750  302           
06 11.12.17 220 (ЮЗ) 10 км    10/0 средняя, верхняя 
[Ac und|Ci fib]
-1.6 -6.1 71 -3  1012.5  1.7  751  305  -1.6    сухой снег
50-90% 
09 11.12.17 210 (ЮЗ) 10 км    10/0 средняя, верхняя 
[Ac und|Ci fib]
+1.5 -3 72 -1  1012.8  0.4  752  302           
12 11.12.17 230 (ЮЗ) 10 км    10/6 600 м средняя 
[Sc|Ac As]
+2.3 -1.7 75 +1  1013.5  0.7  752  301           
15 11.12.17 220 (ЮЗ) 13000 м    10/6 600 м средняя 
[Sc|Ac und]
+2.1 -3.2 68 +1  1012.9  -0.6  752  301           
18 11.12.17 180 (Ю) 11000 м    10/10 600 м 
[Sc|Ac und]
+1.8 -1.6 78 1013.6  0.7  752  301    +3       
21 11.12.17 220 (ЮЗ) 15000 м    10/9 960 м средняя 
[Sc|Ac und]
+4.8 +0.1 72 +6  1013.6  0.1  752  298           
00 12.12.17 240 (ЮЗ) 16000 м    6/4 600 м средняя, верхняя 
[Sc|Ac und|Ci fib]
+5.6 +1 72 +6  1013.3  -0.3  752  297           
03 12.12.17 230 (ЮЗ) 14000 м    4/0 средняя, верхняя 
[Ac und|Ci fib]
+5.4 +2.4 81 +5  1012.8  -0.5  752  297           
06 12.12.17 130 (ЮВ) 10 км    10/6 600 м средняя 
[Sc|Ac und]
+5 +3.1 87 +5  1013.1  0.3  752  297  +1.8         
09 12.12.17 230 (ЮЗ) 10 км    10/8 1000 м верхняя 
[Sc|Ci fib]
+7.4 +4.7 83 +7  1012.3  -0.7  752  294           
12 12.12.17 240 (ЮЗ) 20000 м    10/0 средняя, верхняя 
[Ac trans|Ci fib]
+8.6 +4 73 +7  1012  -0.2  751  293           
15 12.12.17 240 (ЮЗ) 25000 м    8/0 средняя, верхняя 
[Ac trans|Ci fib]
+7.2 +2.9 74 +7  1013.5  1.4  752  295           
Время (UTC), дата Ветер
(°,м/с) 
Видим.   Явления Облачность Т
(°С)
Тd
(°С)
f(%) Тe
(°С)
Pmin
(гПа)
dP
(гПа)
Po
(мм)
O2
(г/м3)
Тmin Tmax R s Состояние
почвы

Для получения пояснительной информации подведите курсор к названию столбца.

ПОГОДА в Светловодске - архив

Всё, что Вы хотите узнать о погоде в Светловодске - удобно и подробно!

Выберите нужную дату (начиная с 1 января 2015* года) и нажмите кнопку "Найти".
Будут отображены архивные сводки погоды по пункту Светловодск, начиная с указанной даты.


Отображать данные в формате CSV (для использования в таблицах Excel)


Внимание! Наш архив погоды предназначен исключительно для личного некоммерческого использования в познавательных целях. Если Вам необходимы официальные справки о состоянии погоды (для производственных, юридических, коммерческих и т.п. целей), обращайтесь в органы Росгидромета.

*Примечание: данная дата относится к архиву по метеостанциям СССР (Россия, СНГ, Балтия).
Архив по метеостанциям Зарубежной Европы и Азии (кроме Китая) хранится 10 дней, по другим регионам земного шара (Китай, Африка, Америка, Австралия, Океания) - 1 день.

Светловодск - район местоположения метеостанции


Название, широта, долгота, высота метеостанции:
Светловодск 49.1°ш. 33.2°д. 84 м над ур. моря [Украина]

Дополнительная информация

В oтличие oт бoльшинства пoгoдных сайтoв мы публикуем пoдрoбную метеoинфoрмацию в детальнoм прoфессиoнальнoм фoрмате.

Характеристики температуры и влажнoсти вoздуха измеряются на высoте 2 м в тени вдали oт зданий и деревьев.
Скoрoсть ветра измеряется на высoте 10 м (на урoвне рoста челoвека скoрoсть ветра ниже в 1.5-2 раза). Если метеoстанция нахoдится в гoрoде или в лесу, тo скoрoсть ветра занижена на 2-4 м/с пo сравнению с oткрытым местoм. Скoрoсть ветра над акватoриями крупных рек и oзёр, а также на вершинах хoлмoв на 2-5 м/с выше, чем в oбычных услoвиях.
Атмoсфернoе давление в разных тoчках местнoсти мoжет значительнo oтличаться oт давления на метеoстанции, в зависимoсти oт услoвий рельефа (при пoдъёме на 10 м давление пoнижается примернo на 1 мм рт.ст.).